Hourly Data Report for March 25, 2015

All times are specified in Local Standard Time (LST). Add 1 hour to adjust for Daylight Saving Time where and when it is observed.

MIRAMICHI RCS
NEW BRUNSWICK

47°00'34.000" N
65°27'54.000" W
33.00 m
8100989
71744
ACQ

Download Data

Hourly Data (March 2015)
Hourly Data Report for March 25, 2015
TIME Temp Definition
°C
Dew Point Definition
°C
Rel Hum Definition
%
Wind Dir Definition
10's deg

Wind Spd Definition
km/h
Visibility Definition
km
Stn Press Definition
kPa
Hmdx Definition


Wind Chill Definition


Weather Definition


00:00 -10.7 -12.3 88 27 5   101.93   -14 LegendNANA
01:00 -11.4 -13.0 88 28 5   101.94   -15 LegendNANA
02:00 -10.1 -11.9 87 26 6   101.96   -14 LegendNANA
03:00 -8.5 -10.6 85 28 7   101.94   -12 LegendNANA
04:00 -8.7 -11.6 80 27 7   101.96   -13 LegendNANA
05:00 -9.7 -12.4 81 27 7   102.02   -14 LegendNANA
06:00 -11.2 -14.0 80 27 5   102.05   -14 LegendNANA
07:00 -9.8 -13.4 75 27 5   102.11   -13 LegendNANA
08:00 -6.7 -12.5 64 26 6   102.16   -10 LegendNANA
09:00 -1.9 -12.0 46 27 9   102.19   -5 LegendNANA
10:00 -0.2 -13.4 36 30 16   102.23   -5 LegendNANA
11:00 1.5 -13.5 32 29 10   102.19     LegendNANA
12:00 3.1 -12.4 31 31 10   102.12     LegendNANA
13:00 4.2 -12.3 29 32 11   102.06     LegendNANA
14:00 5.1 -12.8 26 28 12   102.02     LegendNANA
15:00 5.7 -12.4 26 22 7   101.94     LegendNANA
16:00 7.0 -12.3 24 26 5   101.87     LegendNANA
17:00 6.1 -11.4 27 24 12   101.81     LegendNANA
18:00 5.3 -10.3 31 21 5   101.74     LegendNANA
19:00 -0.9 -9.9 50 11 11   101.71   -5 LegendNANA
20:00 -2.7 -10.1 57 14 9   101.73   -6 LegendNANA
21:00 -3.4 -9.3 64 20 2   101.70   -4 LegendNANA
22:00 -2.3 -9.9 56 19 11   101.62   -6 LegendNANA
23:00 -1.7 -9.2 56 19 16   101.49   -7 LegendNANA

Notes on Data Quality.

Legend

  • E = Estimated
  • M = Missing
  • NA = Not Available
Date modified: